www.pogodaiklimat.ru

Погода и климат >> Архив погоды >> Австралия >> Новый Южный Уэльс >> Даббо


ПОГОДА в Даббо

  • Прогноз погоды в Даббо
  • Монитор погоды в Даббо

АРХИВ ПОГОДЫ в Даббо

Время (UTC), дата Ветер
(напр.,м/с)
 
Видим.   Явления Облачность Т
(С)
Тd
(С)
f
(%)
Тe
(С)
Тes
(С)
Комфортность P
(гПа)
Po
(гПа)
Тmin
(С)
Tmax
(С)
R
(мм)
R24
(мм)
S
(см)
10 17.01 С 4 н/о н/о +36.9 +8.7 18 +35 +35 очень
жарко
1006.0 974.1
11 17.01 С 2 н/о н/о +33.8 +9.1 22 +33 +33 жарко 1006.6 974.6
12 17.01 штиль 0 н/о н/о +33.2 +9.9 24 +32 +32 жарко 1006.8 974.8
13 17.01 В 4 н/о н/о +30.3 +10.3 29 +30 +30 жарко 1007.1 975.1 +44.4
14 17.01 СВ 3 н/о н/о +31.1 +11.5 30 +31 +31 жарко 1007.1 975.1
15 17.01 С 2 н/о н/о +32.4 +11.0 27 +32 +32 жарко 1007.0 975.0
16 17.01 С 5 н/о н/о +32.8 +11.3 27 +33 +33 жарко 1007.0 975.0
17 17.01 С 5 н/о н/о +31.6 +11.4 29 +32 +32 жарко 1007.2 975.2
18 17.01 СВ 4 н/о н/о +29.5 +11.1 32 +30 +30 жарко 1008.2 976.2
19 17.01 СВ 4 н/о н/о +28.8 +10.9 33 +29 +29 жарко 1009.1 977.1
20 17.01 В 4 н/о н/о +29.0 +12.0 35 +30 +30 жарко 1010.4 978.3
21 17.01 СВ 4 н/о н/о +31.7 +12.0 30 +32 +32 жарко 1011.4 979.3
22 17.01 С 9 н/о н/о +33.9 +8.5 21 +32 +32 жарко 1011.7 979.6
23 17.01 С 8 н/о н/о +35.9 +9.4 20 +35 +35 очень
жарко
1011.8 979.7
00 18.01 С 9 н/о н/о +36.7 +9.3 19 +35 +35 очень
жарко
1011.4 979.3
01 18.01 С 9 н/о н/о +38.5 +9.1 17 +37 +37 очень
жарко
1011.0 978.9 +28.0
02 18.01 С 9 н/о н/о +39.3 +8.9 16 +37 +37 очень
жарко
1010.5 978.4
03 18.01 С 9 н/о н/о +40.6 +7.9 14 +38 +38 очень
жарко
1009.6 977.5
04 18.01 СЗ 9 н/о н/о +40.7 +8.0 14 +39 +39 очень
жарко
1008.8 976.8
05 18.01 С 9 н/о н/о +41.7 +8.8 14 +40 +40 очень
жарко
1007.8 975.8
06 18.01 С 9 н/о н/о +41.1 +8.3 14 +39 +39 очень
жарко
1006.9 974.9
07 18.01 С 8 н/о н/о +40.9 +9.2 15 +39 +39 очень
жарко
1006.6 974.6
08 18.01 С 8 н/о н/о +40.1 +9.5 16 +38 +38 очень
жарко
1007.4 975.4
09 18.01 С 7 н/о н/о +37.9 +9.5 18 +36 +36 очень
жарко
1008.1 976.1
10 18.01 С 5 н/о н/о +36.1 +11.0 22 +35 +35 очень
жарко
1008.6 976.6
11 18.01 С 5 н/о н/о +35.4 +11.1 23 +35 +35 очень
жарко
1009.6 977.5
12 18.01 СЗ 4 н/о н/о +35.3 +11.0 23 +35 +35 очень
жарко
1010.7 978.6
13 18.01 ЮЗ 3 н/о н/о +33.9 +10.5 24 +33 +33 жарко 1012.0 979.9 +42.6
14 18.01 штиль 0 н/о н/о +31.1 +10.4 28 +31 +31 жарко 1012.1 980.0
15 18.01 З 3 н/о н/о +30.1 +11.1 31 +30 +30 жарко 1011.9 979.8
16 18.01 ЮЗ 2 н/о н/о +30.1 +11.6 32 +31 +31 жарко 1011.8 979.7
17 18.01 СВ 1 н/о н/о +27.2 +11.7 38 +28 +28 жарко 1011.4 979.3
18 18.01 СВ 2 н/о н/о +27.7 +12.5 39 +29 +29 жарко 1011.6 979.5
19 18.01 штиль 0 н/о н/о +26.3 +12.4 42 +28 +28 жарко 1011.8 979.7
20 18.01 СВ 3 н/о н/о +29.2 +11.7 34 +30 +30 жарко 1012.7 980.5
21 18.01 С 3 н/о н/о +31.3 +10.1 27 +31 +31 жарко 1013.7 981.5
22 18.01 С 5 н/о н/о +33.0 +7.1 20 +31 +31 жарко 1013.7 981.5
23 18.01 С 8 н/о н/о +34.5 +7.5 19 +33 +33 жарко 1013.9 981.7
00 19.01 СЗ 7 н/о н/о +35.4 +8.3 19 +34 +34 очень
жарко
1014.2 982.0
01 19.01 СЗ 7 н/о н/о +37.5 +8.3 17 +36 +36 очень
жарко
1014.5 982.3 +26.4
02 19.01 З 4 н/о н/о +39.0 +7.7 15 +37 +37 очень
жарко
1014.2 982.0
03 19.01 ЮЗ 3 н/о н/о +39.0 +7.7 15 +37 +37 очень
жарко
1013.6 981.4
04 19.01 СЗ 4 н/о н/о +40.1 +7.5 14 +38 +38 очень
жарко
1012.8 980.6
05 19.01 ЮЗ 5 н/о н/о +39.2 +7.8 15 +37 +37 очень
жарко
1012.3 980.2
06 19.01 СВ 3 н/о н/о +39.4 +7.0 14 +37 +37 очень
жарко
1011.8 979.7
07 19.01 ЮВ 7 н/о н/о +38.1 +8.8 17 +36 +36 очень
жарко
1011.5 979.4
08 19.01 Ю 6 н/о н/о +37.3 +9.8 19 +36 +36 очень
жарко
1011.8 979.7
09 19.01 Ю 5 н/о н/о +35.8 +10.8 22 +35 +35 очень
жарко
1012.2 980.1
10 19.01 Ю 4 н/о н/о +34.4 +12.1 26 +34 +34 очень
жарко
1012.9 980.7
11 19.01 Ю 3 н/о н/о +32.7 +12.3 29 +33 +33 жарко 1013.6 981.4
12 19.01 В 10 н/о н/о +28.2 +18.3 55 +33 +33 очень
душно
1014.7 982.5
13 19.01 В 9 н/о н/о +26.5 +17.8 59 +31 +31 душно 1015.2 983.0 +40.9
14 19.01 В 9 н/о н/о +25.0 +18.0 65 +29 +29 душно 1015.9 983.6
15 19.01 В 8 н/о н/о +24.3 +18.0 68 +29 +29 душно 1015.3 983.1
16 19.01 В 7 н/о н/о +24.0 +17.7 68 +28 +28 душно 1015.0 982.8
17 19.01 В 6 н/о н/о +23.8 +18.0 70 +28 +28 душно 1015.0 982.8
18 19.01 В 7 н/о н/о +23.5 +17.9 71 +28 +28 душно 1014.9 982.7
19 19.01 В 6 н/о н/о +23.1 +18.0 73 +29 +29 очень
душно
1015.2 983.0
20 19.01 В 6 н/о н/о +23.4 +18.3 73 +29 +29 душно 1015.7 983.5
21 19.01 В 7 н/о н/о +25.2 +18.4 66 +30 +30 душно 1016.5 984.2
22 19.01 В 8 н/о н/о +26.0 +17.9 61 +30 +30 душно 1017.0 984.7
23 19.01 В 8 н/о н/о +29.0 +17.5 50 +33 +33 очень
душно
1017.1 984.8
00 20.01 В 7 н/о н/о +31.6 +17.9 44 +36 +36 очень
душно
1016.8 984.5
01 20.01 В 5 н/о н/о +34.6 +16.4 34 +37 +37 очень
душно
1016.2 983.9 +23.1
02 20.01 В 5 н/о н/о +35.7 +15.4 30 +37 +37 душно 1015.0 982.8
03 20.01 СВ 4 н/о н/о +38.4 +14.9 25 +39 +39 очень
душно
1014.0 981.8
04 20.01 З 3 н/о н/о +38.5 +13.7 23 +39 +39 душно 1013.0 980.8
05 20.01 ЮВ 3 н/о н/о +39.0 +12.0 20 +38 +38 очень
жарко
1011.7 979.6
06 20.01 С 3 н/о н/о +38.6 +11.6 20 +38 +38 очень
жарко
1011.2 979.1
07 20.01 В 7 н/о н/о +37.8 +15.0 26 +39 +39 очень
душно
1010.6 978.5
08 20.01 СЗ 13 н/о н/о +23.9 +19.6 77 +29 +29 душно 1012.3 980.2
09 20.01 СВ 8 н/о н/о +23.6 +18.9 75 +28 +28 душно 1011.6 979.5
10 20.01 СЗ 6 н/о ливневой дождь {туман} 10/0
[]
+24.7 +18.2 67 +29 +29 душно 1016.2 983.9
11 20.01 ЮЗ 7 н/о н/о +22.2 +19.9 87 +28 +28 душно 1018.3 986.0
12 20.01 ЮЗ 1 н/о н/о +22.3 +20.6 90 +29 +29 очень
душно
1017.8 985.5
13 20.01 В 7 н/о ливневой дождь {туман} 10/10 1500 м
[]
+21.9 +20.5 92 +28 +28 душно 1015.4 983.2 +40.7
14 20.01 ЮВ 4 н/о н/о +22.3 +20.0 87 +28 +28 душно 1016.3 984.0
15 20.01 ЮВ 7 н/о н/о +21.8 +20.6 93 +28 +28 душно 1016.5 984.2
16 20.01 ЮВ 4 н/о слаб. ливневой дождь со снегом {туман} 10/10 600 м
[]
+21.4 +20.4 94 +27 +27 душно 1016.7 984.4
17 20.01 В 1 н/о н/о +21.5 +20.0 91 +27 +27 душно 1017.3 985.0
18 20.01 ЮВ 5 н/о н/о +21.2 +20.4 95 +26 +26 душно 1016.0 983.7
19 20.01 В 3 н/о в посл. час снег {туман} 10/0
[]
+21.4 +19.9 91 +26 +26 душно 1016.2 983.9
20 20.01 В 6 н/о н/о +21.5 +20.5 94 +27 +27 душно 1016.3 984.0
21 20.01 В 5 н/о н/о +22.2 +20.1 88 +28 +28 душно 1016.5 984.2
22 20.01 В 5 н/о {туман} 9/0
[]
+23.4 +20.5 84 +31 +33 очень
душно
1016.6 984.3
23 20.01 В 7 н/о н/о +24.4 +19.5 74 +30 +30 очень
душно
1016.2 983.9
00 21.01 В 7 н/о н/о +28.4 +20.2 61 +35 +35 очень
душно
1016.0 983.7
01 21.01 В 6 н/о 6/0
[]
+30.0 +19.1 52 +35 +41 очень
душно
1015.7 983.5 +20.7
02 21.01 СВ 6 н/о н/о +30.5 +18.2 48 +35 +35 очень
душно
1014.9 982.7
03 21.01 СВ 6 н/о н/о +30.6 +18.7 49 +36 +36 очень
душно
1014.1 981.9
04 21.01 В 3 н/о 1/1 1000 м
[]
+32.4 +18.6 44 +37 +50 очень
душно
1013.5 981.3
05 21.01 С 3 н/о н/о +32.9 +17.1 39 +36 +36 очень
душно
1013.0 980.8
06 21.01 СВ 4 н/о н/о +32.7 +17.3 40 +36 +36 очень
душно
1012.4 980.3
07 21.01 В 3 н/о н/о +33.2 +17.4 39 +37 +37 очень
душно
1012.3 980.2
08 21.01 В 7 н/о н/о +31.6 +18.9 47 +37 +37 очень
душно
1012.3 980.2
09 21.01 В 7 н/о н/о +29.0 +18.4 53 +34 +34 очень
душно
1012.8 980.6
10 21.01 В 7 н/о н/о +27.2 +20.0 65 +33 +33 очень
душно
1013.6 981.4
11 21.01 В 7 н/о н/о +25.8 +20.4 72 +32 +32 очень
душно
1014.3 982.1
12 21.01 В 7 н/о н/о +24.9 +19.5 72 +30 +30 душно 1014.6 982.4
13 21.01 В 7 н/о н/о +24.4 +18.8 71 +29 +29 душно 1014.1 981.9 +34.2
14 21.01 В 5 н/о н/о +23.7 +19.0 75 +28 +28 душно 1014.1 981.9
15 21.01 В 4 н/о н/о +23.3 +19.2 78 +30 +30 очень
душно
1013.8 981.6
16 21.01 В 4 н/о н/о +23.5 +19.4 78 +29 +29 душно 1013.5 981.3
17 21.01 В 5 н/о н/о +23.3 +19.5 79 +30 +30 очень
душно
1013.2 981.0
18 21.01 В 4 н/о н/о +22.5 +19.5 83 +29 +29 очень
душно
1013.4 981.2
19 21.01 В 4 н/о н/о +22.4 +19.6 84 +28 +28 душно 1013.7 981.5
20 21.01 В 4 н/о н/о +23.4 +20.0 81 +30 +30 очень
душно
1014.3 982.1
21 21.01 В 5 н/о н/о +24.3 +19.6 75 +30 +30 очень
душно
1014.7 982.5
22 21.01 В 3 н/о н/о +26.8 +19.9 66 +33 +33 очень
душно
1014.9 982.7
23 21.01 С 5 н/о н/о +31.7 +19.7 49 +38 +38 очень
душно
1014.7 982.5
00 22.01 С 6 н/о н/о +33.0 +17.2 39 +37 +37 очень
душно
1014.4 982.2
01 22.01 С 7 н/о н/о +34.3 +17.1 36 +38 +38 очень
душно
1014.0 981.8 +22.5
02 22.01 СЗ 6 н/о н/о +35.8 +17.0 33 +39 +39 очень
душно
1013.0 980.8
03 22.01 СЗ 4 н/о н/о +35.9 +15.1 29 +37 +37 душно 1012.1 980.0
04 22.01 СЗ 5 н/о н/о +37.2 +14.5 26 +38 +38 душно 1011.1 979.0
05 22.01 С 4 н/о н/о +37.8 +13.1 23 +38 +38 очень
жарко
1010.2 978.1
06 22.01 СВ 4 н/о н/о +37.7 +13.0 23 +38 +38 очень
жарко
1009.4 977.4
07 22.01 С 2 н/о н/о +37.8 +13.1 23 +38 +38 очень
жарко
1008.9 976.9
08 22.01 С 3 н/о н/о +37.2 +13.9 25 +38 +38 душно 1008.7 976.7
09 22.01 СВ 3 н/о н/о +33.3 +16.2 36 +36 +36 очень
душно
1008.7 976.7
10 22.01 В 3 н/о 8/0
[]
+30.8 +17.5 45 +35 +35 очень
душно
1009.0 977.0
11 22.01 СВ 3 н/о н/о +30.1 +17.9 48 +35 +35 очень
душно
1009.3 977.3
12 22.01 СВ 4 н/о н/о +30.2 +16.6 44 +34 +34 очень
душно
1009.3 977.3
13 22.01 СВ 5 н/о в посл. час дождь со снегом 10/0
[]
+30.9 +16.5 42 +34 +34 душно 1009.2 977.2 +38.8
14 22.01 СВ 4 н/о н/о +30.0 +18.4 50 +35 +35 очень
душно
1009.8 977.7
15 22.01 ЮВ 8 н/о н/о +22.1 +20.4 90 +28 +28 душно 1013.0 980.8
16 22.01 СВ 5 н/о ливневой дождь {туман} 10/10 1500 м
[]
+22.3 +20.4 89 +29 +29 очень
душно
1012.3 980.2
17 22.01 СВ 6 н/о н/о +21.2 +19.7 91 +26 +26 душно 1012.3 980.2
18 22.01 В 5 н/о н/о +21.8 +19.9 89 +27 +27 душно 1012.8 980.6
19 22.01 В 7 1500 м дождь {туман} 10/10 600 м
[]
+21.4 +19.1 87 +26 +26 душно 1010.6 978.5
20 22.01 В 6 н/о н/о +21.7 +18.9 84 +27 +27 душно 1010.2 978.1
21 22.01 С 1 н/о н/о +22.5 +19.7 84 +29 +29 очень
душно
1010.9 978.8
22 22.01 СВ 1 н/о {туман} 1/0
[]
+23.8 +20.1 80 +29 +38 душно 1011.4 979.3
23 22.01 С 2 н/о н/о +26.5 +19.1 64 +32 +32 очень
душно
1011.6 979.5
00 23.01 С 3 н/о н/о +29.2 +20.1 58 +36 +36 очень
душно
1011.4 979.3
01 23.01 С 1 н/о {туман} н/о +31.0 +19.4 50 +37 +37 очень
душно
1011.1 979.0 +21.1
02 23.01 СВ 3 н/о н/о +33.4 +18.3 41 +38 +38 очень
душно
1010.6 978.5
03 23.01 З 1 н/о н/о +34.4 +19.2 41 +40 +40 очень
душно
1010.1 978.0
04 23.01 СЗ 6 н/о {туман} н/о +36.0 +15.7 30 +38 +38 очень
душно
1009.3 977.3
05 23.01 З 4 н/о н/о +36.1 +15.2 29 +38 +38 очень
душно
1008.6 976.6
06 23.01 СЗ 5 н/о н/о +36.7 +16.3 30 +39 +39 очень
душно
1007.9 975.9
07 23.01 СЗ 4 н/о н/о +36.3 +14.9 28 +38 +38 очень
душно
1007.9 975.9
08 23.01 З 3 н/о н/о +36.3 +15.4 29 +38 +38 очень
душно
1008.3 976.3
09 23.01 ЮВ 11 н/о н/о +27.4 +15.1 47 +30 +30 жарко 1011.1 979.0
10 23.01 В 9 н/о н/о +26.4 +15.1 50 +29 +29 жарко 1011.2 979.1
11 23.01 В 6 н/о н/о +25.6 +15.3 53 +29 +29 душно 1010.7 978.6
12 23.01 ЮВ 6 н/о н/о +25.5 +15.8 55 +29 +29 душно 1011.3 979.2
13 23.01 В 5 н/о 3/0
[]
+24.5 +16.7 62 +28 +28 душно 1011.5 979.4 +37.1
14 23.01 В 9 н/о н/о +23.5 +17.0 67 +27 +27 душно 1011.4 979.3
15 23.01 В 7 н/о н/о +23.2 +17.7 71 +29 +29 душно 1012.2 980.1
16 23.01 В 8 н/о н/о +22.7 +18.7 78 +28 +28 душно 1012.2 980.1
17 23.01 В 7 н/о н/о +22.6 +19.0 80 +28 +28 душно 1012.1 980.0
18 23.01 В 5 н/о н/о +22.3 +19.3 83 +28 +28 душно 1012.3 980.2
19 23.01 В 5 н/о 5/0
[]
+22.3 +19.5 84 +28 +28 душно 1012.7 980.5
20 23.01 В 6 н/о н/о +22.6 +19.2 81 +29 +29 очень
душно
1013.0 980.8
21 23.01 В 7 н/о н/о +24.4 +19.2 73 +29 +29 душно 1013.5 981.3
22 23.01 В 8 н/о н/о +26.3 +19.2 65 +32 +32 очень
душно
1014.0 981.8
23 23.01 В 8 н/о н/о +27.8 +19.1 59 +33 +33 очень
душно
1013.9 981.7
00 24.01 В 9 н/о н/о +29.9 +19.0 52 +35 +35 очень
душно
1013.6 981.4
01 24.01 СВ 7 н/о н/о +31.1 +18.1 46 +36 +36 очень
душно
1013.2 981.0 +22.1
02 24.01 В 6 н/о н/о +33.0 +18.0 41 +37 +37 очень
душно
1012.3 980.2
03 24.01 В 5 н/о н/о +34.5 +17.7 37 +38 +38 очень
душно
1011.8 979.7
04 24.01 В 6 н/о н/о +35.4 +18.0 36 +39 +39 очень
душно
1011.1 979.0
05 24.01 В 6 н/о н/о +35.1 +16.9 34 +38 +38 очень
душно
1010.7 978.6
06 24.01 В 7 н/о н/о +35.0 +17.7 36 +39 +39 очень
душно
1010.4 978.3
07 24.01 В 6 н/о н/о +34.7 +17.9 37 +39 +39 очень
душно
1010.1 978.0
08 24.01 В 7 н/о н/о +33.3 +17.9 40 +37 +37 очень
душно
1010.3 978.2
09 24.01 В 6 н/о н/о +31.0 +18.0 46 +35 +35 очень
душно
1010.8 978.7

 

Местоположение метеостанции Даббо (Новый Южный Уэльс, Австралия): широта -32.21 долгота 148.56 высота над уровнем моря 285 м.

В архиве по умолчанию представлена погода в Даббо за последнюю неделю. Архивные данные за месяц целиком и за предыдущие месяцы, начиная с января 2011 года, Вы можете получить, выбрав интересующий диапазон дат из раскрывающегося списка и нажав кнопку "Ввод!".


*Определитесь, кто Вы:
робот инопланетянин человек

Внимание! Время в таблицах - всемирное. Для получения местного времени необходимо прибавить поправку, которая равна 10 ч.

Смотрите также архив погоды в соседних городах и на ближайших метеорологических станциях:

Погода в Транги (Новый Южный Уэльс, Австралия) (63 км)
Погода в Парксе (Новый Южный Уэльс, Австралия) (107 км)
Погода в Маджи (Новый Южный Уэльс, Австралия) (107 км)
Погода в Кунабарабране (Новый Южный Уэльс, Австралия) (120 км)
Погода в Кунамбле (Новый Южный Уэльс, Австралия) (138 км)
Погода в Ориндже (Новый Южный Уэльс, Австралия) (141 км)
Погода в Форбсе (Новый Южный Уэльс, Австралия) (142 км)
Погода в Мерриве (Новый Южный Уэльс, Австралия) (152 км)
Погода в Кондоболине (Новый Южный Уэльс, Австралия) (158 км)
Погода в Налло Маунтин (Новый Южный Уэльс, Австралия) (167 км)

Пояснения к столбцам:

Ветер - указаны скорость ветра в м/с - средняя за 10 мин, порывы в срок и между сроками (в фигурных скобках) и направление, откуда дует ветер: С - северный, СВ - северо-восточный, В - восточный, ЮВ - юго-восточный, Ю - южный, ЮЗ - юго-западный, З - западный, СЗ - северо-западный.
Видимость - горизонтальная дальность видимости в метрах или километрах. При видимости от 1 до 10 км при отсутствии осадков обычно наблюдается дымка, при ухудшении видимости до 1 км и менее - туман. В сухую погоду видимость может ухудшаться дымом, пылью или мглою.
Явления - указаны атмосферные явления, наблюдавшиеся в срок или в последний час перед сроком; фигурными скобками обозначены явления, наблюдавшиеся между сроками (за 1-3 часа до срока); квадратными скобками обозначены град или гололедные отложения с указанием их диаметра в мм.
Облачность - указаны через наклонную черту общая и нижняя облачность в баллах и высота нижней границы облаков в метрах; квадратными скобками обозначены формы облаков: Ci - перистые, Cs - перисто-слоистые, Cc - перисто-кучевые, Ac - высококучевые, As - высокослоистые, Sc - слоисто-кучевые, Ns - слоисто-дождевые, Cu - кучевые, Cb - кучево-дождевые. Подробнее классификацию облаков см. в Атласе облаков (PDF).
T - Температура воздуха - температура, измеренная на высоте 2 м над землей.
Td - Температура точки росы - температура, при понижении до которой содержащийся в воздухе водяной пар достигнет насыщения.
f - Относительная влажность воздуха - влажноcть воздуха, измеренная на высоте 2 м над землей.
Te - Эффективная температура - температура, которую ощущает одетый по сезону человек в тени. Характеристика душности погоды. При расчете учитывается влияние влажности воздуха и скорости ветра на теплоощущения человека.
Tes - Эффективная температура на солнце - температура, которую ощущает человек, с поправкой на солнечный нагрев. Характеристика знойности погоды. Зависит от высоты солнца над горизонтом, облачности и скорости ветра. Ночью, в пасмурную погоду, а также при ветре 12 м/с и более поправка равна нулю.
P - Атмосферное давление - приведенное к уровню моря атмосферное давление.
Po - Атмосферное давление - измеренное на уровне метеостанции атмосферное давление.
Tmin - Минимальная температура - минимум температуры воздуха на высоте 2 м над землей.
Tmax - Максимальная температура - максимум температуры воздуха на высоте 2 м над землей.
R - Количество осадков - Количество выпавших осадков за период времени, мм. При наведении курсора мыши на число - период времени, за который выпало указанное количество осадков.
R24 - Количество осадков - Количество выпавших осадков за 24 часа, мм.
S - Снежный покров - Высота снежного покрова, см. При наведении курсора мыши на число - состояние снежного покрова и степень покрытия местности в баллах.